Weather History for GMTA - January, 2014

Change the Weather History Date:

Monday, January 27, 2014

  Actual Average Record
Temperature  
Mean Temperature 58 °F -  
Max Temperature 68 °F 61 °F 69 °F (2001)
Min Temperature 49 °F 46 °F 30 °F (2005)
Degree Days  
Heating Degree Days 6    
Growing Degree Days 8 (Base 50)    
Moisture  
Dew Point 50 °F    
Average Humidity 64    
Maximum Humidity 72    
Minimum Humidity 52    
Precipitation  
Precipitation 0.00 in - - ()
Sea Level Pressure  
Sea Level Pressure 30.14 in    
Wind  
Wind Speed 9 mph ()    
Max Wind Speed 20 mph    
Max Gust Speed 31 mph    
Visibility 6.4 miles    
Events      
Averages and records for this station are not official NWS values.
T = Trace of Precipitation, MM = Missing Value Source: Averaged Metar Reports

Daily Weather History Graph

Daily Weather History Graph

Search for Another Location

Airport or City:

Trip Planner

Search our weather history database for the weather conditions in past years. The results will help you decide how hot, cold, wet, or windy it might be!

Date:

Astronomy

Jan. 27, 2014 Rise Set
Actual Time 7:18 AM WET 5:38 PM WET
Civil Twilight 6:51 AM WET 6:05 PM WET
Nautical Twilight 6:20 AM WET 6:36 PM WET
Astronomical Twilight 5:50 AM WET 7:06 PM WET
Moon 3:42 AM WET (1/27) 2:11 PM WET (1/27)
Length of Visible Light 11h 14m
Length of Day
10h 20m
Waning Crescent, 16% of the Moon is Illuminated
Jan 27
Waning Crescent
Jan 30
New
Feb 6
First Quarter
Feb 14
Full
Feb 22
Last Quarter

Hourly Weather History & Observations

Time (WET) Temp. Dew Point Humidity Pressure Visibility Wind Dir Wind Speed Gust Speed Precip Events Conditions
12:00 AM 54 °F 45 °F 62% 30.23 in 9 mi South 6.9 mph - -   Clear
12:00 AM 53.6 °F 44.6 °F 72% 30.21 in - South 6.9 mph - N/A   Clear
6:00 AM 54 °F 45 °F 62% 30.19 in 9 mi SSW 4.6 mph - -   Clear
6:00 AM 53.6 °F 44.6 °F 72% 30.18 in - SSW 4.6 mph - N/A   Clear
7:00 AM 53.6 °F 44.6 °F 72% 30.15 in - SW 6.9 mph - N/A   Clear
8:00 AM 51.8 °F 42.8 °F 71% 30.15 in - South 6.9 mph - N/A   Clear
9:00 AM 53 °F 44 °F 64% 30.17 in 6 mi North 6.9 mph - -   Scattered Clouds
9:00 AM 53.6 °F 44.6 °F 72% 30.15 in 6.2 mi North 6.9 mph - N/A   Scattered Clouds
10:00 AM 64.4 °F 53.6 °F 68% 30.21 in 5.0 mi NW 11.5 mph - N/A   Partly Cloudy
11:00 AM 68.0 °F 53.6 °F 60% 30.18 in 5.0 mi West 11.5 mph - N/A   Scattered Clouds
12:00 PM 65 °F 52 °F 54% 30.17 in 5 mi North 13.8 mph - -   Partly Cloudy
12:00 PM 64.4 °F 51.8 °F 64% 30.15 in 5.0 mi North 13.8 mph - N/A   Partly Cloudy
1:00 PM 66.2 °F 53.6 °F 64% 30.12 in 6.2 mi NW 13.8 mph - N/A   Partly Cloudy
2:00 PM 66.2 °F 53.6 °F 64% 30.12 in 5.0 mi NW 17.3 mph - N/A   Partly Cloudy
3:00 PM 67 °F 54 °F 52% 30.11 in 6 mi WNW 9.2 mph - -   Partly Cloudy
3:00 PM 68.0 °F 53.6 °F 60% 30.09 in 6.2 mi WNW 9.2 mph - N/A   Partly Cloudy
4:00 PM 68.0 °F 53.6 °F 60% 30.06 in 6.2 mi West 9.2 mph - N/A   Partly Cloudy
5:00 PM 66.2 °F 51.8 °F 60% 30.06 in 6.2 mi WNW 6.9 mph - N/A   Partly Cloudy
6:00 PM 62 °F 51 °F 59% 30.08 in 9 mi NNW 13.8 mph - -   Scattered Clouds
6:00 PM 62.6 °F 51.8 °F 68% 30.06 in 6.2 mi NNW 13.8 mph - N/A   Partly Cloudy
7:00 PM 62.6 °F 51.8 °F 68% 30.09 in 6.2 mi West 16.1 mph - N/A   Partly Cloudy
8:00 PM 60.8 °F 51.8 °F 72% 30.12 in 6.2 mi WNW 11.5 mph 31.1 mph N/A   Scattered Clouds
8:57 PM 60.8 °F 50.0 °F 68% 30.12 in 6.2 mi WNW 19.6 mph 31.1 mph N/A   Scattered Clouds
9:00 PM 60 °F 50 °F 60% 30.13 in 9 mi NW 18.4 mph - -   Partly Cloudy
9:00 PM 60.8 °F 50.0 °F 68% 30.12 in 6.2 mi NW 18.4 mph - N/A   Scattered Clouds
10:00 PM 60.8 °F 48.2 °F 63% 30.12 in 6.2 mi WNW 16.1 mph 31.1 mph N/A   Scattered Clouds
11:00 PM 60.8 °F 46.4 °F 59% 30.15 in 6.2 mi West 13.8 mph - N/A   Mostly Cloudy